Weather History for Laredo, TX

Change the Weather History Date:

Wednesday, May 13, 2009

  Actual Average Record
Temperature  
Mean Temperature 92 °F 82 °F  
Max Temperature 104 °F 93 °F 114 °F (1995)
Min Temperature 79 °F 71 °F 53 °F (1931)
Degree Days  
Heating Degree Days 0 0  
Month to date heating degree days 0  
Since 1 July heating degree days 926  
Cooling Degree Days 26 17  
Month to date cooling degree days 204  
Year to date cooling degree days 804  
Growing Degree Days 42 (Base 50)    
Moisture  
Dew Point 66 °F    
Average Humidity 51    
Maximum Humidity 79    
Minimum Humidity 22    
Precipitation  
Precipitation 0.00 in 0.08 in 7.20 in (1928)
Month to date precipitation 1.02  
Year to date precipitation 5.40  
Sea Level Pressure  
Sea Level Pressure 29.77 in    
Wind  
Wind Speed 17 mph (SSE)    
Max Wind Speed 24 mph    
Max Gust Speed 30 mph    
Visibility 10 miles    
Events      
T = Trace of Precipitation, MM = Missing Value Source: NWS Daily Summary

Daily Weather History Graph

Daily Weather History Graph

Search for Another Location

Airport:

Trip Planner

Search our weather history database for the weather conditions in past years. The results will help you decide how hot, cold, wet, or windy it might be!

Date:

Astronomy

May. 13, 2009 Rise Set
Actual Time 6:49 AM CDT 8:18 PM CDT
Civil Twilight 6:24 AM CDT 8:44 PM CDT
Nautical Twilight 5:54 AM CDT 9:14 PM CDT
Astronomical Twilight 5:22 AM CDT 9:45 PM CDT
Moon No Moon Rise 10:13 AM CDT (5/13)
Length of Visible Light 14h 19m
Length of Day
13h 28m
Waning Gibbous, 82% of the Moon is Illuminated
May 13
Waning Gibbous
May 17
Last Quarter
May 24
New
May 30
First Quarter
Jun 7
Full

Hourly Weather History & Observations

Time (CDT) Temp. Heat Index Dew Point Humidity Pressure Visibility Wind Dir Wind Speed Gust Speed Precip Events Conditions
12:56 AM 81.9 °F 85.2 °F 68.9 °F 65% 29.82 in 10.0 mi SE 17.3 mph - N/A   Clear
1:56 AM 81.0 °F 84.4 °F 70.0 °F 69% 29.81 in 10.0 mi SSE 17.3 mph - N/A   Clear
2:56 AM 79.9 °F - 70.0 °F 72% 29.79 in 10.0 mi SSE 16.1 mph 23.0 mph N/A   Partly Cloudy
3:12 AM 80.6 °F 84.6 °F 71.6 °F 74% 29.82 in 10.0 mi SSE 15.0 mph 23.0 mph N/A   Mostly Cloudy
3:56 AM 79.9 °F - 70.9 °F 74% 29.79 in 10.0 mi SSE 15.0 mph - N/A   Overcast
4:56 AM 79.9 °F - 70.9 °F 74% 29.78 in 10.0 mi SSE 15.0 mph - N/A   Overcast
5:56 AM 79.0 °F - 72.0 °F 79% 29.78 in 10.0 mi SSE 13.8 mph - N/A   Partly Cloudy
6:56 AM 79.0 °F - 70.9 °F 76% 29.79 in 10.0 mi SSE 13.8 mph - N/A   Clear
7:56 AM 79.9 °F - 70.9 °F 74% 29.80 in 10.0 mi SSE 15.0 mph - N/A   Clear
8:56 AM 81.9 °F 86.0 °F 70.9 °F 69% 29.81 in 9.0 mi SSE 18.4 mph 24.2 mph N/A   Clear
9:56 AM 84.9 °F 88.8 °F 68.9 °F 59% 29.81 in 10.0 mi South 19.6 mph - N/A   Clear
10:56 AM 90.0 °F 93.6 °F 68.0 °F 48% 29.80 in 10.0 mi South 21.9 mph 26.5 mph N/A   Clear
11:56 AM 93.9 °F 97.5 °F 66.9 °F 41% 29.80 in 10.0 mi South 18.4 mph 25.3 mph N/A   Clear
12:56 PM 97.0 °F 99.9 °F 64.9 °F 35% 29.78 in 10.0 mi SSE 17.3 mph - N/A   Clear
1:56 PM 99.9 °F 102.1 °F 63.0 °F 30% 29.75 in 10.0 mi South 17.3 mph 23.0 mph N/A   Partly Cloudy
2:56 PM 104.0 °F 106.0 °F 61.9 °F 25% 29.72 in 10.0 mi South 17.3 mph 20.7 mph N/A   Clear
3:56 PM 104.0 °F 104.6 °F 59.9 °F 23% 29.70 in 10.0 mi South 10.4 mph - N/A   Clear
4:56 PM 104.9 °F 105.4 °F 59.0 °F 22% 29.67 in 10.0 mi South 16.1 mph - N/A   Clear
5:56 PM 104.0 °F 106.0 °F 61.9 °F 25% 29.67 in 10.0 mi SSE 17.3 mph 25.3 mph N/A   Clear
6:56 PM 99.9 °F 104.6 °F 66.9 °F 34% 29.68 in 10.0 mi SSE 21.9 mph 28.8 mph N/A   Clear
7:56 PM 95.9 °F 97.5 °F 63.0 °F 34% 29.70 in 9.0 mi SE 24.2 mph 29.9 mph N/A   Clear
8:56 PM 91.9 °F 92.9 °F 63.0 °F 38% 29.73 in 10.0 mi SE 16.1 mph 24.2 mph N/A   Clear
9:56 PM 88.9 °F 88.8 °F 61.0 °F 39% 29.75 in 10.0 mi SSE 17.3 mph 24.2 mph N/A   Clear
10:56 PM 86.9 °F 85.9 °F 57.9 °F 37% 29.78 in 10.0 mi SSE 18.4 mph - N/A   Clear
11:56 PM 83.8 °F 85.1 °F 63.9 °F 51% 29.80 in 10.0 mi SSE 19.6 mph 25.3 mph N/A   Clear